C/2024 T5 ( ATLAS )

Japanese version
Home page
Updated on March 23, 2025

---------------------------------------------------------------------

* Profile

Discovery Date October 2, 2024
Magnitude 19.2 mag
Discoverer Asteroid Terrestrial-Impact Last Alert System (ATLAS) search program

* Orbital Elements

Epoch 2025 May 5.0 TT = JDT 2460800.5
T 2027 May 6.33962 TT                                   Pike
q   3.8422827            (2000.0)            P               Q
z  -0.0005093      Peri.  352.43287     -0.10476160     -0.61893376
 +/-0.0000336      Node   100.68184     +0.94889478     -0.29651622
e   1.0019569      Incl.   52.38708     +0.29769735     +0.72732326
From 207 observations 2024 Oct. 2-2025 Feb. 2, mean residual 0".4.

* Finding Charts

* Magnitudes Graph

        m1 = 4.5 + 5 log d + 10.0 log r

---------------------------------------------------------------------

The orbital elements are published on M.P.E.C. 2025-C143.
The charts are made with StellaNavigator Ver.11 (AstroArts).
The magnitudes graphs are made with Comet for Windows.

---------------------------------------------------------------------

Copyright(C) Seiichi Yoshida (comet@aerith.net). All rights reserved.